Wind_Speed
13 12 10 9 9 8 7 7 6 6 6 7 6 6 8 9 11 10 7 6 2 17 8 3 1 1 2 3 2 2 3 2 2 2 6 3 5 5 5 4 2 3 1 4 21
16 13 10 10 9 8 8 6 6 6 5 6 5 6 7 8 9 10 9 6 8 5 14 6 3 3 3 3 3 4 4 3 2 2 5 6 4 3 6 7 6 6 8 17 21
17 13 11 9 8 8 7 6 5 4 4 4 4 4 4 6 4 3 3 1 11 7 8 8 5 2 4 2 4 4 8 4 3 5 2 1 3 4 5 8 7 11 13 16 20
18 13 11 9 7 7 6 5 4 3 3 3 3 2 1 2 1 0 8 8 17 12 11 7 3 4 4 6 3 5 6 3 2 3 1 3 0 4 8 4 3 9 18 18 17
19 14 11 9 7 6 5 4 3 1 1 2 1 1 1 1 6 7 11 5 21 16 8 5 5 4 5 4 5 5 3 4 4 5 6 4 7 7 11 9 6 8 18 20 18
19 14 12 9 7 4 3 3 2 1 1 1 2 3 1 4 2 7 1 17 14 10 6 5 4 3 3 3 5 3 3 3 5 4 4 5 2 3 8 13 10 14 16 19 20
18 14 12 8 5 2 3 5 4 2 1 2 4 3 1 10 3 4 6 5 12 7 4 3 4 1 3 3 1 1 3 3 6 4 5 7 4 7 2 7 11 15 15 17 19
18 14 12 8 2 2 5 5 4 2 1 4 6 3 5 3 5 5 9 4 7 5 2 2 4 2 1 2 2 2 1 8 6 5 1 9 16 11 4 6 9 12 14 17 20
17 13 11 6 2 6 6 6 4 3 4 7 2 1 6 5 5 5 11 4 7 4 4 6 2 3 2 2 2 2 5 4 4 1 2 8 8 6 4 7 8 14 16 17 18
16 11 9 5 6 8 7 6 7 6 6 2 1 2 4 1 1 5 10 10 4 7 4 2 3 2 2 3 6 3 3 3 6 3 2 3 10 13 10 7 12 13 17 18 19
14 9 5 5 8 8 10 6 1 2 3 5 3 3 5 7 0 3 8 5 3 3 2 2 4 5 6 4 2 2 4 9 8 9 7 14 12 13 11 10 13 13 16 19 20
12 6 1 5 7 7 3 0 3 2 6 6 7 6 8 4 4 2 10 7 4 4 4 3 6 7 2 6 5 5 7 11 9 6 5 11 15 15 12 10 10 15 16 21 23
11 4 4 4 5 4 3 2 6 7 2 4 2 2 2 8 4 3 9 4 3 5 5 5 1 5 5 4 6 7 11 7 9 5 10 12 13 10 5 6 9 13 15 16 22
10 3 6 5 6 3 2 6 17 9 2 7 3 3 3 1 4 6 3 0 3 5 5 5 3 7 6 8 8 10 9 11 9 4 6 2 8 10 9 8 10 12 13 15 19
9 2 8 10 3 2 7 16 3 2 2 9 5 2 2 4 5 9 20 1 4 1 4 1 3 3 4 3 8 5 2 6 7 8 7 12 7 9 4 7 10 10 13 15 16
3 7 8 6 2 2 15 3 3 1 3 5 6 10 4 13 6 8 10 14 3 3 3 3 3 4 6 3 8 4 10 6 2 4 11 16 12 12 12 11 10 8 10 12 14
18 18 13 6 6 12 6 2 1 1 7 9 6 8 9 12 9 9 16 19 9 6 9 9 2 5 9 10 8 7 7 6 6 8 14 8 8 12 7 13 13 13 12 12 13
18 18 8 19 14 3 2 2 2 3 4 6 6 3 7 12 8 11 6 7 18 9 4 7 1 10 16 7 8 12 6 6 11 10 13 1 9 10 11 12 10 10 13 9 12
11 6 10 28 10 3 5 6 2 2 6 8 3 6 5 6 5 6 10 6 12 13 7 7 4 11 6 15 7 3 5 10 11 15 11 12 16 12 12 13 11 14 16 14 13
3 3 13 24 8 7 7 5 3 5 4 2 4 5 5 9 4 6 4 7 5 11 6 3 7 6 13 10 7 7 10 4 5 9 18 12 11 10 11 17 19 22 21 21 18
2 2 22 14 8 8 5 5 4 8 3 5 3 4 6 4 6 4 4 4 7 7 4 5 2 6 9 8 15 10 3 5 4 5 9 16 11 5 11 15 18 21 21 21 20
4 2 27 10 6 3 4 3 4 7 9 7 6 7 4 7 5 4 3 4 7 6 4 6 2 4 11 13 8 9 7 7 4 6 5 5 8 9 12 16 17 22 21 19 19
3 3 18 7 5 6 11 13 10 7 9 4 6 6 6 4 4 6 3 1 8 4 3 4 1 6 4 5 5 5 12 9 11 11 14 8 7 3 23 25 21 23 22 19 13
4 3 6 7 4 12 10 6 6 7 10 8 5 6 3 5 5 5 4 2 7 4 9 1 1 3 4 10 12 18 20 18 11 7 14 23 28 25 28 31 32 26 22 20 17
4 3 2 4 9 13 8 5 8 4 5 10 4 6 3 3 3 3 4 6 5 6 3 2 2 3 13 16 13 16 18 19 19 17 17 28 29 26 27 27 27 25 22 20 19
4 5 5 4 4 13 8 5 7 5 5 4 3 4 2 3 3 2 3 2 2 5 3 1 3 7 11 9 9 17 15 13 15 17 19 25 28 21 23 22 24 23 23 21 20
7 6 4 7 5 6 4 3 2 5 4 5 2 1 2 1 3 6 5 5 5 3 1 1 5 9 5 13 16 3 5 6 10 17 21 22 27 20 19 18 19 23 26 21 20
Wind_Direction
345 331 316 307 306 305 299 286 280 273 271 273 279 288 289 296 298 291 248 230 203 228 202 196 158 124 110 120 118 161 227 225 205 272 7 38 210 146 144 157 203 176 249 105 139
348 341 324 304 296 293 293 279 276 268 266 271 278 277 284 298 301 258 263 230 226 215 191 193 182 143 135 143 143 192 233 223 199 238 357 325 260 192 183 173 202 173 90 133 145
351 346 339 318 296 288 290 278 276 276 272 268 265 269 298 327 276 237 122 252 198 144 185 187 133 158 168 175 173 164 235 193 221 254 269 299 229 197 225 214 212 200 152 161 161
351 348 343 333 308 288 281 265 264 255 262 263 256 262 305 337 236 171 313 282 186 170 138 123 113 151 176 183 165 207 241 198 149 189 213 275 123 239 228 234 289 217 160 166 179
349 346 342 333 316 290 276 249 241 255 255 257 232 196 120 239 255 317 334 154 163 176 156 140 160 154 190 170 158 220 215 198 245 256 260 281 254 267 244 194 132 169 160 176 190
349 345 342 333 318 287 251 211 195 207 216 224 192 161 126 249 251 358 119 142 159 151 153 154 179 190 126 172 209 202 202 280 278 241 239 247 310 211 262 177 154 168 189 185 195
348 345 344 337 320 275 186 167 160 156 168 188 169 151 195 251 213 4 145 166 165 159 155 178 134 221 137 155 337 87 263 273 231 241 235 184 242 225 214 169 191 186 195 195 202
349 346 345 345 337 157 156 149 142 132 127 140 151 148 250 252 259 252 186 144 175 182 117 138 175 70 319 114 68 171 217 240 216 201 193 205 252 235 203 177 207 213 201 203 203
349 348 350 358 98 135 135 130 120 117 120 126 112 114 272 285 263 223 178 135 134 150 137 92 88 61 145 158 205 43 246 215 261 285 223 216 238 252 358 207 222 228 216 206 209
349 351 358 33 106 120 121 116 114 109 117 111 172 258 249 79 158 139 162 143 124 123 108 105 78 129 106 202 241 247 246 209 242 105 20 256 266 278 288 281 267 227 228 222 212
349 351 11 81 120 131 121 119 208 152 188 236 295 293 306 330 144 97 162 133 99 111 146 78 213 219 220 201 203 251 268 274 267 268 296 277 267 269 274 249 257 231 221 228 229
346 346 57 112 143 153 142 131 56 2 305 243 260 261 262 322 341 79 152 158 165 188 147 186 255 234 153 172 197 211 264 269 288 280 240 272 278 283 277 260 248 241 218 225 231
338 324 195 161 164 193 222 133 342 281 266 310 203 236 321 183 218 254 177 133 148 193 205 232 80 120 182 199 227 239 254 258 275 299 250 272 265 259 241 259 264 256 250 235 233
327 284 194 172 154 188 219 329 327 169 356 12 29 81 93 258 83 15 354 248 181 229 197 256 242 231 227 258 228 272 224 250 265 267 269 319 282 259 265 259 251 257 244 238 228
321 230 175 162 136 180 332 326 138 168 121 343 29 104 73 27 326 44 32 355 63 101 194 186 222 175 215 231 182 272 221 276 277 259 282 254 256 264 240 251 259 248 233 232 228
346 128 135 192 259 270 329 54 127 232 86 9 27 8 45 34 30 351 18 36 38 350 350 305 302 255 281 197 206 291 292 271 246 250 254 258 235 256 243 250 259 253 256 241 228
112 96 82 76 316 312 343 132 154 69 338 353 354 1 66 22 42 39 52 49 32 357 20 333 299 7 15 298 258 252 274 283 262 238 262 284 251 250 254 249 250 266 272 251 240
115 78 66 18 345 346 92 92 95 18 359 347 348 59 65 13 41 30 57 50 31 19 14 359 221 14 353 8 310 295 249 258 271 272 286 346 259 258 223 254 261 258 262 261 234
134 73 31 354 1 93 84 61 64 346 325 325 333 45 47 27 45 73 53 49 29 15 24 350 264 331 9 334 306 23 242 338 281 270 276 260 264 261 247 245 269 319 320 288 251
144 80 20 350 29 72 74 102 104 356 327 322 70 15 52 10 58 64 62 22 14 9 350 71 291 23 322 323 59 18 335 285 235 270 260 250 261 267 22 7 3 1 346 330 314
103 78 355 359 44 53 82 86 96 27 94 35 68 74 63 20 47 62 54 75 24 1 37 25 240 331 330 10 333 328 354 347 281 306 279 277 266 90 46 11 359 353 350 343 327
65 57 352 26 53 43 66 91 84 19 39 68 67 64 62 37 66 84 81 66 30 351 25 19 62 309 298 321 58 69 43 33 348 313 294 274 254 142 39 356 349 341 345 347 337
80 9 358 28 107 88 95 84 62 45 32 63 50 53 53 56 107 100 41 61 17 22 27 357 85 312 330 168 86 5 336 324 313 276 261 278 253 215 328 333 341 338 336 335 331
88 60 24 35 36 107 110 62 106 48 49 55 57 54 88 50 41 133 67 67 2 31 76 325 123 3 309 278 281 291 296 296 283 270 285 258 291 300 319 327 325 331 327 324 314
45 75 337 52 54 82 91 79 91 88 64 32 74 47 48 72 85 69 48 357 41 36 32 28 27 325 291 286 280 271 279 283 282 276 268 290 295 306 306 301 306 314 317 319 319
105 120 64 83 63 71 36 38 85 84 28 38 59 354 31 89 45 60 26 13 13 359 52 19 341 314 303 305 301 297 291 275 280 293 287 289 288 311 323 322 322 320 322 316 316
47 72 95 35 61 77 37 76 75 116 76 50 333 112 123 60 328 293 272 262 272 303 347 309 345 331 306 336 310 225 8 9 335 323 305 290 293 310 321 322 313 317 304 303 303
Height
787 786 784 783 782 782 781 780 781 781 781 782 782 782 783 782 781 780 777 771 770 772 775 776 776 777 777 777 778 780 790 798 793 791 781 773 777 777 777 778 779 778 779 783 788
785 783 781 781 780 780 779 778 778 779 780 780 780 781 781 781 779 776 769 768 770 770 773 775 775 776 777 778 778 779 790 789 781 778 777 774 777 774 779 779 779 779 783 786 789
783 781 779 777 777 777 777 776 777 778 778 779 779 779 780 779 779 767 766 767 769 770 772 774 775 775 778 778 780 783 785 779 777 774 774 777 778 772 773 777 769 771 778 785 788
782 779 777 776 775 775 775 775 776 777 777 777 777 778 778 780 781 765 765 763 766 770 772 774 775 778 780 782 779 785 777 777 775 773 775 776 771 771 770 765 764 765 770 781 785
781 778 775 774 773 772 773 774 775 776 776 776 776 777 779 779 770 764 762 761 765 770 771 773 776 779 780 780 782 783 777 776 772 773 773 773 772 772 765 762 762 767 771 776 782
780 777 774 772 770 771 771 773 774 775 775 775 776 778 779 780 765 764 763 764 766 770 772 773 774 775 778 779 781 777 778 775 771 771 772 773 774 773 751 757 762 766 770 772 776
779 775 772 770 769 769 770 772 773 774 774 775 776 777 778 769 764 764 765 766 768 769 772 773 774 776 776 781 779 779 784 778 772 768 770 769 778 772 754 757 759 763 766 771 775
777 774 771 769 768 768 769 771 773 774 774 775 776 777 772 763 763 763 765 766 768 770 772 772 774 775 777 778 781 784 785 790 769 771 768 770 779 758 756 761 762 761 765 767 769
776 773 770 768 767 768 770 772 773 773 774 775 777 776 769 763 762 760 763 765 768 771 773 774 774 780 780 784 789 791 793 796 782 772 771 772 773 756 755 759 762 761 759 761 762
775 772 770 768 768 770 771 772 773 774 775 776 777 778 763 761 759 759 762 764 766 770 773 775 779 784 787 786 798 795 795 794 790 778 776 778 774 759 757 759 756 758 755 754 754
774 772 770 769 770 770 771 773 776 776 775 764 764 765 761 759 759 760 762 764 765 769 778 780 784 789 785 786 787 791 794 794 785 777 785 776 774 764 754 760 753 751 752 750 746
773 771 770 770 770 771 772 771 772 774 771 762 763 764 762 761 763 760 762 766 769 778 778 784 789 779 783 787 790 793 794 790 784 778 782 771 770 757 751 749 746 742 744 744 739
771 770 770 770 771 772 771 771 771 771 773 762 760 761 759 761 763 761 760 764 770 779 779 785 780 780 782 786 791 789 790 791 789 779 774 776 770 758 746 748 745 742 737 738 738
768 767 768 769 774 770 771 770 767 767 776 768 761 760 760 759 765 762 764 763 769 775 779 781 772 780 783 785 783 791 775 777 782 788 789 773 785 760 748 748 744 736 735 733 735
765 765 767 769 768 769 771 767 765 767 794 767 764 758 760 763 768 773 775 763 780 777 778 778 777 781 782 777 778 777 771 775 776 781 785 775 785 756 755 747 735 730 729 727 728
763 764 767 769 768 768 766 764 766 781 800 779 769 773 771 775 781 778 782 780 789 782 778 779 770 772 768 770 769 765 770 774 782 780 785 766 774 755 747 738 727 722 718 718 720
765 766 767 769 769 765 764 766 782 794 786 798 794 788 787 794 796 799 810 816 821 802 808 794 778 773 778 775 764 772 781 791 787 780 774 751 768 750 732 724 723 717 713 715 716
766 767 768 769 766 763 764 772 796 812 811 803 801 795 802 805 811 819 820 827 831 830 821 822 793 795 796 795 791 782 780 783 797 785 767 763 761 740 725 716 715 716 713 714 714
767 767 769 767 764 763 767 802 822 823 819 815 806 804 812 812 810 824 839 842 845 841 838 834 813 805 799 797 795 783 784 780 779 764 776 756 738 730 725 721 718 721 718 717 711
767 768 772 768 764 765 783 820 823 824 820 816 817 820 823 825 818 825 844 852 850 848 845 849 840 820 809 793 791 802 796 789 775 789 781 751 753 744 743 753 746 742 738 731 723
768 770 775 769 768 777 805 820 824 824 821 823 827 829 835 837 832 841 850 857 853 851 848 852 851 827 814 813 826 811 807 814 809 793 783 768 748 761 766 762 758 750 745 737 726
772 779 779 770 787 809 817 821 825 828 826 829 832 836 840 842 841 847 851 852 855 854 853 854 857 844 836 828 824 824 834 833 826 804 812 802 768 759 760 761 760 754 743 738 732
783 791 785 775 803 818 823 829 832 832 837 836 840 841 844 847 849 852 854 855 856 856 856 855 856 841 828 829 829 838 838 839 841 833 818 809 754 750 752 755 760 757 752 745 739
789 797 800 800 817 816 824 834 838 842 844 844 847 844 847 850 852 854 855 857 858 858 858 858 858 857 856 855 850 848 841 837 842 838 814 789 781 777 769 768 754 758 757 750 741
797 821 827 826 829 827 828 838 840 845 849 851 852 852 851 850 852 854 858 859 859 861 861 860 857 860 852 848 848 846 842 838 835 831 830 798 804 799 793 784 771 764 760 754 744
801 815 829 836 836 833 838 848 847 852 853 857 857 858 855 854 858 859 864 864 864 862 863 867 855 860 848 841 841 840 834 832 831 827 819 808 797 792 796 791 781 772 765 760 751
812 817 819 843 841 837 849 852 854 855 861 861 861 860 859 860 863 865 867 868 868 869 864 862 860 857 842 842 837 832 839 836 837 833 830 825 797 803 797 796 790 783 770 762 755